When you browse on this site, cookies collect data to enhance your experience and personalize the content and advertising you see.
Visit our Privacy Policy to learn more. By continuing to use the site, you agree to this use of cookies and data.
  • în România
  • Lista ţărilor
  • Pe 7 zile
  • Temperatura apei
  • Hartă satelitară
  • Meteo pe hartă
  • Widget-uri
  • user-avatar
    Intrare

    Meteo pe oră la Konyshkovo

    Astăzi, 17 Noiembrie, Sâmbătă

    Timp Temperatura Precipitaţii Vânt Presiune Umiditate
    00:00 -4°C° 0 mm 3 m/s 759 mmHg 90%
    01:00 -4°C° 0 mm 3 m/s 758 mmHg 90%
    02:00 -3°C° 0 mm 2 m/s 758 mmHg 92%
    03:00 -4°C° 0 mm 3 m/s 757 mmHg 91%
    04:00 -4°C° 0 mm 3 m/s 757 mmHg 90%
    05:00 -4°C° 0 mm 3 m/s 756 mmHg 89%
    06:00 -4°C° 0 mm 3 m/s 756 mmHg 88%
    07:00 -4°C° 0 mm 4 m/s 756 mmHg 87%
    08:00 -4°C° 0 mm 4 m/s 755 mmHg 85%
    09:00 -3°C° 0 mm 4 m/s 755 mmHg 83%
    10:00 -2°C° 0 mm 4 m/s 754 mmHg 80%
    11:00 -2°C° 0 mm 4 m/s 754 mmHg 78%
    12:00 -2°C° 0.2 mm 4 m/s 753 mmHg 79%
    13:00 -2°C° 0.2 mm 4 m/s 752 mmHg 80%
    14:00 -1°C° 0.2 mm 4 m/s 751 mmHg 81%
    15:00 -2°C° 0.7 mm 4 m/s 751 mmHg 84%
    16:00 -2°C° 0.7 mm 4 m/s 750 mmHg 87%
    17:00 -2°C° 0.7 mm 4 m/s 750 mmHg 90%
    18:00 -1°C° 0.1 mm 4 m/s 749 mmHg 90%
    19:00 -1°C° 0.1 mm 4 m/s 748 mmHg 90%
    20:00 -1°C° 0.1 mm 4 m/s 747 mmHg 90%
    21:00 -1°C° 0.1 mm 4 m/s 746 mmHg 91%
    22:00 -1°C° 0.1 mm 4 m/s 746 mmHg 91%
    23:00 -1°C° 0.1 mm 4 m/s 745 mmHg 91%

    Mâine, 18 Noiembrie, Duminică

    Timp Temperatura Precipitaţii Vânt Presiune Umiditate
    00:00 -1°C° 0.1 mm 4 m/s 744 mmHg 92%
    01:00 -1°C° 0.1 mm 4 m/s 744 mmHg 92%
    02:00 -1°C° 0.1 mm 4 m/s 743 mmHg 93%
    03:00 -1°C° 0.2 mm 4 m/s 743 mmHg 93%
    04:00 0°C° 0.2 mm 3 m/s 742 mmHg 94%
    05:00 0°C° 0.2 mm 3 m/s 742 mmHg 94%
    06:00 0°C° 0.1 mm 3 m/s 742 mmHg 95%
    07:00 +1°C° 0.1 mm 2 m/s 742 mmHg 96%
    08:00 +1°C° 0.1 mm 2 m/s 742 mmHg 96%
    09:00 +1°C° 0.1 mm 2 m/s 742 mmHg 97%
    10:00 +2°C° 0.1 mm 2 m/s 742 mmHg 97%
    11:00 +3°C° 0.1 mm 1 m/s 742 mmHg 97%
    12:00 +3°C° 0.1 mm 1 m/s 742 mmHg 97%
    13:00 +3°C° 0.1 mm 1 m/s 742 mmHg 98%
    14:00 +3°C° 0.1 mm 1 m/s 743 mmHg 98%
    15:00 +2°C° 0.1 mm 1 m/s 743 mmHg 98%
    16:00 +2°C° 0.1 mm 1 m/s 743 mmHg 98%
    17:00 +2°C° 0.1 mm 1 m/s 744 mmHg 98%
    18:00 +1°C° 0.1 mm 2 m/s 744 mmHg 98%
    19:00 +1°C° 0.1 mm 2 m/s 744 mmHg 97%
    20:00 +1°C° 0.1 mm 2 m/s 745 mmHg 97%
    21:00 +1°C° 0.1 mm 2 m/s 745 mmHg 97%
    22:00 +1°C° 0.1 mm 2 m/s 746 mmHg 97%
    23:00 +1°C° 0.1 mm 2 m/s 746 mmHg 97%

    Poimâine, 19 Noiembrie, Luni

    Timp Temperatura Precipitaţii Vânt Presiune Umiditate
    00:00 +1°C° 0.1 mm 2 m/s 746 mmHg 97%
    01:00 +1°C° 0.1 mm 2 m/s 747 mmHg 96%
    02:00 +1°C° 0.1 mm 2 m/s 747 mmHg 96%
    03:00 +1°C° 0.1 mm 2 m/s 748 mmHg 96%
    04:00 -1°C° 0.1 mm 2 m/s 748 mmHg 95%
    05:00 -1°C° 0.1 mm 3 m/s 748 mmHg 95%
    06:00 -1°C° 0 mm 3 m/s 749 mmHg 95%
    07:00 -1°C° 0 mm 3 m/s 749 mmHg 95%
    08:00 -1°C° 0 mm 3 m/s 750 mmHg 94%
    09:00 -1°C° 0 mm 3 m/s 750 mmHg 94%
    10:00 0°C° 0 mm 3 m/s 751 mmHg 93%
    11:00 0°C° 0 mm 3 m/s 751 mmHg 92%
    12:00 0°C° 0 mm 3 m/s 751 mmHg 92%
    13:00 +1°C° 0 mm 2 m/s 751 mmHg 93%
    14:00 +1°C° 0 mm 2 m/s 752 mmHg 93%
    15:00 +1°C° 0 mm 2 m/s 752 mmHg 94%
    16:00 -1°C° 0 mm 2 m/s 752 mmHg 94%
    17:00 -1°C° 0 mm 3 m/s 752 mmHg 95%
    18:00 -1°C° 0 mm 2 m/s 752 mmHg 95%
    19:00 -1°C° 0 mm 2 m/s 752 mmHg 95%
    20:00 -1°C° 0 mm 2 m/s 752 mmHg 95%
    21:00 -1°C° 0 mm 2 m/s 752 mmHg 95%
    22:00 -1°C° 0 mm 2 m/s 752 mmHg 95%
    23:00 -2°C° 0 mm 2 m/s 752 mmHg 95%

    20 Noiembrie, Marţi

    Timp Temperatura Precipitaţii Vânt Presiune Umiditate
    00:00 -2°C° 0 mm 2 m/s 752 mmHg 95%
    01:00 0°C° 0 mm 1 m/s 752 mmHg 96%
    02:00 0°C° 0 mm 1 m/s 752 mmHg 96%
    03:00 0°C° 0 mm 1 m/s 751 mmHg 96%
    04:00 0°C° 0 mm 1 m/s 751 mmHg 96%
    05:00 0°C° 0 mm 1 m/s 751 mmHg 96%
    06:00 0°C° 0 mm 1 m/s 750 mmHg 96%
    07:00 0°C° 0 mm 1 m/s 750 mmHg 96%
    08:00 -1°C° 0 mm 1 m/s 750 mmHg 96%
    09:00 0°C° 0 mm 1 m/s 750 mmHg 95%
    10:00 -1°C° 0 mm 0 m/s 749 mmHg 93%
    11:00 0°C° 0 mm 0 m/s 749 mmHg 91%
    12:00 0°C° 0 mm 0 m/s 749 mmHg 90%
    13:00 +1°C° 0 mm 1 m/s 748 mmHg 89%
    14:00 +1°C° 0 mm 1 m/s 748 mmHg 89%
    15:00 0°C° 0 mm 1 m/s 748 mmHg 90%
    16:00 0°C° 0 mm 1 m/s 747 mmHg 91%
    17:00 0°C° 0 mm 1 m/s 747 mmHg 91%
    18:00 0°C° 0 mm 1 m/s 747 mmHg 92%
    19:00 0°C° 0 mm 1 m/s 747 mmHg 92%
    20:00 0°C° 0 mm 1 m/s 747 mmHg 92%
    21:00 -1°C° 0 mm 1 m/s 747 mmHg 93%
    22:00 -1°C° 0 mm 1 m/s 746 mmHg 93%
    23:00 -1°C° 0 mm 1 m/s 746 mmHg 94%

    21 Noiembrie, Miercuri

    Timp Temperatura Precipitaţii Vânt Presiune Umiditate
    00:00 -1°C° 0 mm 1 m/s 746 mmHg 94%
    01:00 -1°C° 0 mm 1 m/s 746 mmHg 95%
    02:00 -2°C° 0 mm 1 m/s 746 mmHg 95%
    03:00 -4°C° 0 mm 2 m/s 746 mmHg 94%
    04:00 -4°C° 0 mm 2 m/s 746 mmHg 93%
    05:00 -4°C° 0 mm 2 m/s 746 mmHg 93%
    06:00 -4°C° 0 mm 2 m/s 746 mmHg 92%
    07:00 -4°C° 0 mm 2 m/s 746 mmHg 92%
    08:00 -5°C° 0 mm 2 m/s 746 mmHg 91%
    09:00 -4°C° 0 mm 2 m/s 746 mmHg 90%
    10:00 -4°C° 0 mm 2 m/s 747 mmHg 89%
    11:00 -3°C° 0 mm 2 m/s 747 mmHg 87%
    12:00 -3°C° 0 mm 2 m/s 747 mmHg 87%
    13:00 -3°C° 0 mm 2 m/s 747 mmHg 86%
    14:00 -2°C° 0 mm 2 m/s 747 mmHg 86%
    15:00 -3°C° 0 mm 2 m/s 747 mmHg 87%
    16:00 -3°C° 0 mm 2 m/s 747 mmHg 88%
    17:00 -3°C° 0 mm 2 m/s 748 mmHg 89%
    18:00 -3°C° 0 mm 2 m/s 748 mmHg 88%
    19:00 -3°C° 0 mm 2 m/s 748 mmHg 87%
    20:00 -3°C° 0 mm 2 m/s 748 mmHg 86%
    21:00 -3°C° 0 mm 2 m/s 748 mmHg 84%
    22:00 -3°C° 0 mm 2 m/s 748 mmHg 83%
    23:00 -3°C° 0 mm 2 m/s 748 mmHg 82%

    22 Noiembrie, Joi

    Timp Temperatura Precipitaţii Vânt Presiune Umiditate
    00:00 -3°C° 0 mm 2 m/s 748 mmHg 83%
    01:00 -3°C° 0 mm 2 m/s 748 mmHg 84%
    02:00 -4°C° 0 mm 2 m/s 748 mmHg 85%
    03:00 -4°C° 0 mm 2 m/s 748 mmHg 86%
    04:00 -5°C° 0 mm 3 m/s 748 mmHg 87%
    05:00 -6°C° 0 mm 3 m/s 747 mmHg 89%
    06:00 -5°C° 0 mm 3 m/s 747 mmHg 88%
    07:00 -5°C° 0 mm 3 m/s 747 mmHg 87%
    08:00 -4°C° 0 mm 4 m/s 747 mmHg 86%
    09:00 -4°C° 0 mm 4 m/s 747 mmHg 84%
    10:00 -3°C° 0 mm 4 m/s 747 mmHg 82%
    11:00 -3°C° 0 mm 4 m/s 747 mmHg 80%
    12:00 -3°C° 0 mm 4 m/s 747 mmHg 81%
    13:00 -3°C° 0 mm 4 m/s 747 mmHg 81%
    14:00 -3°C° 0 mm 4 m/s 747 mmHg 82%
    15:00 -3°C° 0 mm 4 m/s 747 mmHg 83%
    16:00 -3°C° 0 mm 4 m/s 747 mmHg 84%
    17:00 -3°C° 0 mm 4 m/s 747 mmHg 85%
    18:00 -3°C° 0 mm 4 m/s 748 mmHg 86%
    19:00 -2°C° 0 mm 3 m/s 748 mmHg 87%
    20:00 -2°C° 0 mm 3 m/s 748 mmHg 88%
    21:00 -2°C° 0 mm 3 m/s 748 mmHg 88%
    22:00 -2°C° 0 mm 3 m/s 748 mmHg 88%
    23:00 -2°C° 0 mm 3 m/s 748 mmHg 89%
    Arată mai mult